Terminal Aerodrome Forecast
Issued by NWS Jackson, MS

Home | Current Version | Previous Version | Text Only | Print | Product List | Glossary On
Versions: 1 2 3 4 5 6 7 8 9 10 11 12 13 14 15 16 17 18
000
FTUS44 KJAN 292048 AAB
TAFJAN
TAF AMD
KJAN 292048Z 2921/3018 16012G25KT P6SM VCTS SCT045CB BKN060
     FM300000 VRB03KT P6SM OVC100
     FM300900 16004KT P6SM OVC007
     FM301200 18010KT P6SM OVC050=

USA.gov is the U.S. government's official web portal to all federal, state and local government web resources and services.